Hourly Data Report for June 08, 2018

OTTAWA INTL A
ONTARIO
Current Station Operator: NAVCAN

45°19'00.000" N
75°40'00.000" W
114.90 m
6106001
71628
YOW

Download Data

Hourly Data (June 2018)
Hourly Data Report for June 8, 2018
TIME
LST
Temp Definition
°C
Dew Point Definition
°C
Rel Hum Definition
%
Precip. Amount Definition
mm

Wind Dir Definition
10's deg

Wind Spd Definition
km/h
Visibility Definition
km
Stn Press Definition
kPa
Hmdx Definition


Wind Chill Definition


Weather Definition


00:00 15.3 12.4 82   33 14 24.1 100.44     LegendNANA
01:00 13.3 10.8 84   32 12 24.1 100.49     Mainly Clear
02:00 13.7 11.4 86   32 7 24.1 100.56     LegendNANA
03:00 13.8 10.1 78   35 10 24.1 100.64     LegendNANA
04:00 12.1 9.3 83   5 4 24.1 100.72     Mainly Clear
05:00 11.3 9.4 88   1 5 24.1 100.78     LegendNANA
06:00 14.0 10.6 80   2 8 24.1 100.86     LegendNANA
07:00 15.6 9.0 64   4 14 24.1 100.93     Clear
08:00 17.1 8.2 55   1 17 24.1 100.98     LegendNANA
09:00 18.1 6.6 47   1 11 24.1 100.97     LegendNANA
10:00 18.6 5.5 42   32 13 24.1 100.97     Clear
11:00 19.6 4.6 37   30 9 24.1 100.95     LegendNANA
12:00 20.8 5.8 37   31 8 24.1 100.91     LegendNANA
13:00 21.0 6.3 38   33 15 24.1 100.82     Clear
14:00 21.6 6.2 36   35 5 24.1 100.77     LegendNANA
15:00 22.2 5.6 34   30 10 24.1 100.73     LegendNANA
16:00 22.5 8.2 40   26 12 24.1 100.71     Clear
17:00 21.9 5.1 33   31 19 24.1 100.70     LegendNANA
18:00 21.3 6.2 37   30 16 24.1 100.68     LegendNANA
19:00 19.8 6.2 41   30 11 24.1 100.66     Mainly Clear
20:00 17.7 6.1 46   23 9 24.1 100.63     LegendNANA
21:00 15.0 6.4 56   19 8 24.1 100.68     LegendNANA
22:00 15.9 6.9 55   35 6 24.1 100.71     Clear
23:00 14.2 8.2 67   5 11 24.1 100.76     LegendNANA

Notes on Data Quality.

Legend

  • E = Estimated
  • M = Missing
  • NA = Not Available*
  • [empty] = Indicates an unobserved value
Date modified: